• In Netherlands
  • List of Countries
  • For 7 days
  • Water Temperature
  • Satellite Maps
  • Weather Map
  • Weather Widgets
  • user-avatar
    Login

    Hourly Weather Hasselt

    Today, 20 October, Friday

    Time Temperature Precipitation Wind Pressure Humidity
    00:00 +18°C° 0 mm 4 mps 752 mmHg 63%
    01:00 +18°C° 0 mm 4 mps 752 mmHg 66%
    02:00 +16°C° 0 mm 5 mps 752 mmHg 69%
    03:00 +16°C° 0 mm 5 mps 752 mmHg 72%
    04:00 +15°C° 0.1 mm 5 mps 752 mmHg 76%
    05:00 +15°C° 0.1 mm 5 mps 752 mmHg 79%
    06:00 +14°C° 0 mm 4 mps 752 mmHg 87%
    07:00 +14°C° 0.2 mm 5 mps 752 mmHg 82%
    08:00 +14°C° 0.2 mm 7 mps 752 mmHg 78%
    09:00 +13°C° 0.2 mm 8 mps 753 mmHg 73%
    10:00 +15°C° 0 mm 8 mps 753 mmHg 70%
    11:00 +15°C° 0 mm 8 mps 753 mmHg 68%
    12:00 +15°C° 0 mm 8 mps 754 mmHg 66%
    13:00 +13°C° 0 mm 8 mps 754 mmHg 66%
    14:00 +14°C° 0 mm 7 mps 755 mmHg 67%
    15:00 +14°C° 0 mm 7 mps 755 mmHg 67%
    16:00 +13°C° 0 mm 6 mps 755 mmHg 68%
    17:00 +13°C° 0 mm 6 mps 756 mmHg 69%
    18:00 +12°C° 0 mm 5 mps 756 mmHg 71%
    19:00 +11°C° 0 mm 4 mps 756 mmHg 73%
    20:00 +11°C° 0 mm 4 mps 756 mmHg 76%
    21:00 +10°C° 0 mm 3 mps 757 mmHg 78%
    22:00 +10°C° 0 mm 3 mps 757 mmHg 77%
    23:00 +11°C° 0 mm 4 mps 756 mmHg 76%

    Tomorrow, 21 October, Saturday

    Time Temperature Precipitation Wind Pressure Humidity
    00:00 +11°C° 0 mm 4 mps 756 mmHg 75%
    01:00 +11°C° 0 mm 4 mps 756 mmHg 75%
    02:00 +11°C° 0 mm 4 mps 756 mmHg 75%
    03:00 +11°C° 0 mm 4 mps 755 mmHg 75%
    04:00 +12°C° 0 mm 5 mps 755 mmHg 78%
    05:00 +12°C° 0 mm 5 mps 755 mmHg 81%
    06:00 +12°C° 0 mm 5 mps 754 mmHg 83%
    07:00 +13°C° 0.5 mm 6 mps 754 mmHg 85%
    08:00 +14°C° 0.5 mm 6 mps 754 mmHg 87%
    09:00 +14°C° 0.5 mm 6 mps 754 mmHg 88%
    10:00 +15°C° 0.1 mm 6 mps 754 mmHg 86%
    11:00 +15°C° 0.1 mm 6 mps 755 mmHg 83%
    12:00 +15°C° 0.1 mm 6 mps 755 mmHg 80%
    13:00 +15°C° 0.1 mm 6 mps 755 mmHg 76%
    14:00 +15°C° 0.1 mm 6 mps 755 mmHg 71%
    15:00 +15°C° 0.1 mm 6 mps 755 mmHg 67%
    16:00 +14°C° 0 mm 6 mps 755 mmHg 68%
    17:00 +13°C° 0 mm 5 mps 755 mmHg 70%
    18:00 +12°C° 0 mm 5 mps 755 mmHg 72%
    19:00 +12°C° 0 mm 5 mps 755 mmHg 71%
    20:00 +11°C° 0 mm 6 mps 755 mmHg 70%
    21:00 +10°C° 0 mm 6 mps 755 mmHg 69%
    22:00 +10°C° 0 mm 7 mps 755 mmHg 70%
    23:00 +10°C° 0 mm 7 mps 755 mmHg 70%

    Day after tomorrow, 22 October, Sunday

    Time Temperature Precipitation Wind Pressure Humidity
    00:00 +10°C° 0 mm 7 mps 755 mmHg 70%
    01:00 +9°C° 0 mm 7 mps 755 mmHg 71%
    02:00 +9°C° 0 mm 8 mps 755 mmHg 71%
    03:00 +9°C° 0 mm 8 mps 755 mmHg 72%
    04:00 +9°C° 0.1 mm 8 mps 755 mmHg 73%
    05:00 +9°C° 0.1 mm 8 mps 755 mmHg 75%
    06:00 +9°C° 0.1 mm 7 mps 755 mmHg 76%
    07:00 +9°C° 0.1 mm 8 mps 755 mmHg 76%
    08:00 +10°C° 0.1 mm 8 mps 755 mmHg 75%
    09:00 +10°C° 0.1 mm 8 mps 755 mmHg 75%
    10:00 +10°C° 0.2 mm 8 mps 755 mmHg 75%
    11:00 +10°C° 0.2 mm 8 mps 755 mmHg 75%
    12:00 +10°C° 0.2 mm 8 mps 755 mmHg 75%
    13:00 +10°C° 0.2 mm 7 mps 756 mmHg 75%
    14:00 +10°C° 0.2 mm 7 mps 756 mmHg 75%
    15:00 +10°C° 0.2 mm 7 mps 756 mmHg 75%
    16:00 +10°C° 0.1 mm 6 mps 756 mmHg 76%
    17:00 +9°C° 0.1 mm 6 mps 756 mmHg 77%
    18:00 +9°C° 0.1 mm 5 mps 757 mmHg 78%
    19:00 +9°C° 0.2 mm 5 mps 757 mmHg 80%
    20:00 +8°C° 0.2 mm 5 mps 757 mmHg 81%
    21:00 +8°C° 0.2 mm 5 mps 757 mmHg 83%
    22:00 +8°C° 0.6 mm 6 mps 757 mmHg 84%
    23:00 +9°C° 0.6 mm 6 mps 757 mmHg 85%

    23 October, Monday

    Time Temperature Precipitation Wind Pressure Humidity
    00:00 +9°C° 0.6 mm 6 mps 757 mmHg 86%
    01:00 +9°C° 0.3 mm 6 mps 757 mmHg 86%
    02:00 +9°C° 0.3 mm 6 mps 757 mmHg 86%
    03:00 +9°C° 0.3 mm 6 mps 757 mmHg 85%
    04:00 +9°C° 0 mm 5 mps 758 mmHg 86%
    05:00 +8°C° 0 mm 5 mps 758 mmHg 87%
    06:00 +8°C° 0 mm 5 mps 758 mmHg 87%
    07:00 +9°C° 0 mm 5 mps 758 mmHg 85%
    08:00 +10°C° 0 mm 5 mps 759 mmHg 84%
    09:00 +12°C° 0 mm 5 mps 759 mmHg 82%
    10:00 +12°C° 0.2 mm 5 mps 759 mmHg 83%
    11:00 +12°C° 0.2 mm 5 mps 759 mmHg 84%
    12:00 +13°C° 0.2 mm 5 mps 759 mmHg 86%
    13:00 +12°C° 0.8 mm 4 mps 759 mmHg 88%
    14:00 +12°C° 0.8 mm 4 mps 759 mmHg 90%
    15:00 +12°C° 0.8 mm 4 mps 759 mmHg 93%
    16:00 +12°C° 0.8 mm 3 mps 759 mmHg 93%
    17:00 +12°C° 0.8 mm 3 mps 759 mmHg 94%
    18:00 +12°C° 0.8 mm 3 mps 759 mmHg 95%
    19:00 +12°C° 0.2 mm 3 mps 760 mmHg 96%
    20:00 +13°C° 0.2 mm 2 mps 760 mmHg 96%
    21:00 +14°C° 0.2 mm 2 mps 760 mmHg 97%
    22:00 +14°C° 0.1 mm 2 mps 760 mmHg 97%
    23:00 +14°C° 0.1 mm 1 mps 761 mmHg 98%

    24 October, Tuesday

    Time Temperature Precipitation Wind Pressure Humidity
    00:00 +14°C° 0.1 mm 1 mps 761 mmHg 98%
    01:00 +14°C° 0.1 mm 1 mps 761 mmHg 98%
    02:00 +14°C° 0.1 mm 1 mps 761 mmHg 98%
    03:00 +14°C° 0.1 mm 1 mps 761 mmHg 98%
    04:00 +14°C° 0 mm 1 mps 762 mmHg 98%
    05:00 +14°C° 0 mm 2 mps 762 mmHg 97%
    06:00 +14°C° 0 mm 2 mps 762 mmHg 97%
    07:00 +14°C° 0 mm 2 mps 762 mmHg 95%
    08:00 +14°C° 0 mm 3 mps 762 mmHg 93%
    09:00 +16°C° 0 mm 3 mps 763 mmHg 91%
    10:00 +17°C° 0 mm 3 mps 763 mmHg 87%
    11:00 +18°C° 0 mm 4 mps 763 mmHg 83%
    12:00 +19°C° 0 mm 4 mps 763 mmHg 79%
    13:00 +18°C° 0 mm 4 mps 763 mmHg 80%
    14:00 +18°C° 0 mm 3 mps 762 mmHg 82%
    15:00 +18°C° 0 mm 3 mps 762 mmHg 84%
    16:00 +17°C° 0 mm 3 mps 763 mmHg 86%
    17:00 +17°C° 0 mm 3 mps 763 mmHg 89%
    18:00 +16°C° 0 mm 3 mps 763 mmHg 92%
    19:00 +16°C° 0 mm 3 mps 763 mmHg 93%
    20:00 +14°C° 0 mm 3 mps 763 mmHg 93%
    21:00 +14°C° 0 mm 3 mps 764 mmHg 94%
    22:00 +14°C° 0 mm 3 mps 764 mmHg 94%
    23:00 +14°C° 0 mm 3 mps 764 mmHg 94%

    25 October, Wednesday

    Time Temperature Precipitation Wind Pressure Humidity
    00:00 +14°C° 0 mm 3 mps 764 mmHg 94%
    01:00 +14°C° 0 mm 3 mps 764 mmHg 95%
    02:00 +14°C° 0 mm 3 mps 764 mmHg 95%
    03:00 +13°C° 0 mm 3 mps 764 mmHg 95%
    04:00 +13°C° 0 mm 3 mps 764 mmHg 95%
    05:00 +13°C° 0 mm 3 mps 764 mmHg 95%
    06:00 +13°C° 0 mm 3 mps 764 mmHg 95%
    07:00 +14°C° 0 mm 3 mps 764 mmHg 90%
    08:00 +16°C° 0 mm 3 mps 764 mmHg 86%
    09:00 +17°C° 0 mm 3 mps 765 mmHg 82%
    10:00 +18°C° 0 mm 3 mps 764 mmHg 77%
    11:00 +19°C° 0 mm 2 mps 764 mmHg 72%
    12:00 +20°C° 0 mm 2 mps 764 mmHg 68%
    13:00 +20°C° 0 mm 2 mps 764 mmHg 69%
    14:00 +20°C° 0 mm 2 mps 764 mmHg 70%
    15:00 +21°C° 0 mm 1 mps 763 mmHg 71%
    16:00 +19°C° 0 mm 2 mps 763 mmHg 75%
    17:00 +17°C° 0 mm 2 mps 764 mmHg 80%
    18:00 +16°C° 0 mm 2 mps 764 mmHg 85%
    19:00 +15°C° 0 mm 2 mps 764 mmHg 85%
    20:00 +15°C° 0 mm 2 mps 764 mmHg 85%
    21:00 +14°C° 0 mm 2 mps 764 mmHg 85%
    22:00 +14°C° 0 mm 2 mps 764 mmHg 83%
    23:00 +14°C° 0 mm 2 mps 764 mmHg 81%
    Show more